Printer-friendly version

IAU Minor Planet Center

Minor Planet Center

MPEC 2007-L48 : 2000 QT7

The following Minor Planet Electronic Circular may be linked-to from your own Web pages, but must not otherwise be redistributed electronically.


Read MPEC 2007-L47 Read MPEC 2007-L49


M.P.E.C. 2007-L48                                Issued 2007 June 12, 17:25 UT

     The Minor Planet Electronic Circulars contain information on unusual
         minor planets and routine data on comets.  They are published
   on behalf of Commission 20 of the International Astronomical Union by the
          Minor Planet Center, Smithsonian Astrophysical Observatory,
                          Cambridge, MA 02138, U.S.A.

             Prepared using the Tamkin Foundation Computer Network

                              MPC@CFA.HARVARD.EDU
          URL http://www.cfa.harvard.edu/iau/mpc.html  ISSN 1523-6714

                                   2000 QT7

                           Revision to MPEC 2000-Q29

Additional Observations:
     K00Q07T  C2007 06 11.72743 21 34 16.17 -39 02 54.2          19.9 R EL048474
     K00Q07T  C2007 06 11.73588 21 34 17.43 -39 02 50.9          19.9 R EL048474
     K00Q07T  C2007 06 11.74537 21 34 18.96 -39 02 46.8          20.1 R EL048474
     K00Q07T  C2007 06 12.63275 21 36 45.32 -38 56 42.3          20.8 R EL048474
     K00Q07T  C2007 06 12.63762 21 36 46.07 -38 56 40.6          20.0 R EL048474
     K00Q07T  C2007 06 12.64213 21 36 46.81 -38 56 38.3                 EL048474
     K00Q07T  C2007 06 12.64630 21 36 47.47 -38 56 36.5          20.3 R EL048474

Observer details:
474 Mount John Observatory, Lake Tekapo.  Observer A. C. Gilmore.  1.0-m f/7.7
    reflector + CCD.

First and last observations above in comparison with prediction:
Residuals in seconds of arc, reference and Delta-T
070611 474 38.2+ 26.8+    070612 474 38.4+ 27.8+    MPO  7533   -0.0085 day

Orbital elements:
2000 QT7                                                 Earth MOID = 0.1538 AU
Epoch 2007 Apr. 10.0 TT = JDT 2454200.5                 MPC
M 319.57008              (2000.0)            P               Q
n   0.28216465     Peri.   15.22515     +0.96019858     +0.25723289
a   2.3021537      Node   329.19825     -0.27330538     +0.78481156
e   0.4973428      Incl.   12.27379     -0.05764423     +0.56382804
P   3.49           H   20.1           G   0.15           U   1
Residuals in seconds of arc
000824 704  0.1-  0.2-    000825 012  0.8+  0.5+    000828 808  0.2+  0.4+
000824 704  0.4-  0.1-    000825 012 (0.2-  3.1-)   000828 808  0.7+  0.8+
000824 704  0.2-  0.0     000825 138  1.5-  1.3+    000829 157  0.3+  0.1-
000824 704  0.0   0.1-    000825 138  1.5-  0.2-    000829 157  0.1+  0.1+
000824 704  0.3+  0.1+    000825 138 (0.1+  3.5-)   000829 157  0.2+  0.5-
000824 046  0.8-  0.3+    000826 860  0.1+  0.9+    000831 704  0.1-  0.1+
000824 046  0.2+  0.4+    000826 860  0.3-  0.3-    000831 704  0.5-  0.1-
000824 046  0.0   0.2+    000826 860  0.6+  0.4+    000831 704  0.4-  0.1+
000824 046  0.5+  0.3+    000826 860  0.3+  0.5+    000831 704  0.3-  0.2+
000824 118  0.3+  0.3+    000826 860  0.5-  0.2+    000831 704  0.2-  0.4+
000824 118  0.1+  0.3+    000826 808  0.0   0.0     000831 413  0.2+  0.1-
000824 118  0.1+  0.1+    000826 808 (0.5+  2.3-)   000831 413  0.1+  0.2-
000824 557  0.1-  0.0     000826 808  1.0+  0.8-    000831 413  0.2+  0.1-
000824 557  0.1-  0.5+    000826 808  0.6+  0.0     000901 704  0.1+  0.1+
000824 557  0.2-  0.8-    000826 808  0.3-  1.8+    000901 704  0.3+  0.1+
000824 557  0.0   0.4+    000826 670  1.2+  0.2+    000901 704  0.1+  0.2+
000825 860 (1.2-  2.2-)   000826 704  0.1-  0.2+    000901 704  0.0   0.4+
000825 860  0.9-  1.0-    000826 704  0.1+  0.3-    000901 704  0.3+  0.5+
000825 860  1.2+  0.2+    000826 670  1.5+  0.2+    000902 739  0.2-  0.5-
000825 860  0.7+  0.6-    000826 704  0.2-  0.2-    000902 739  0.8+  0.4+
000825 860  0.5+  0.8-    000826 670  0.4-  0.1+    000902 739  0.6+  0.0
000825 860  0.8-  0.3-    000826 704  0.0   0.2+    000902 704  0.1-  0.4+
000825 860  0.4-  0.4+    000826 658  0.5+  0.1+    000902 704  0.1+  0.2-
000825 704  0.2+  0.2+    000826 658  0.0   0.3+    000902 704  0.2+  0.2-
000825 704  0.3-  0.2+    000826 658  0.1+  0.6+    000902 704  0.2+  0.1-
000825 670  0.2-  0.3+    000826 704  0.4+  0.1-    000902 704  0.3+  0.4-
000825 704  0.1+  0.3+    000826 557  0.2-  0.1+    000902 413  0.0   0.2-
000825 704  0.2-  0.5+    000826 557  0.1-  0.1+    000902 413  0.0   0.1-
000825 704  0.0   0.3-    000826 106  0.1+  0.6+    000903 402  0.1+  0.6-
000825 704  0.1-  0.3+    000826 557  0.1+  0.1-    000903 402  0.0   0.5-
000825 704  0.0   0.3-    000826 595  0.4-  0.1-    000903 402  0.1-  0.2-
000825 670  0.2+  0.2+    000826 595  0.9-  0.2-    000905 726  1.5+  0.5-
000825 704  0.1+  1.1+    000826 106  0.1+  0.2+    000905 726  0.1-  0.5-
000825 658  1.1+  0.4+    000826 595  0.6-  0.8-    000905 726  0.6+  0.2+
000825 658  0.7+  0.7+    000826 118  0.5+  0.6+    000905 360  0.5+  0.4-
000825 658  0.4+  0.4+    000826 952  1.1-  0.8-    000905 360  0.4+  0.1-
000825 670  0.2+  1.0-    000826 118  0.5+  0.4+    000905 360  0.2+  0.3-
000825 106  0.0   0.1+    000826 118  0.1+  0.3+    000908 118  0.2-  0.4+
000825 587  0.3-  0.1+    000826 952  1.0-  0.0     000908 118  0.3-  0.5+
000825 587  0.2+  0.0     000826 952  0.5-  0.2+    000909 118  0.5-  0.4-
000825 106  0.5-  0.4+    000826 104  0.3-  0.4-    000909 118  0.0   0.2-
000825 151  0.3-  0.7-    000826 104  0.2-  0.3-    000919 413  0.1+  0.1+
000825 151  0.3-  0.8-    000826 104  0.2-  0.3-    000919 413  0.1-  0.1+
000825 611  0.0   0.3+    000826 104  0.1-  0.3-    000919 413  0.0   0.0
000825 151  0.6-  0.2-    000826 113  0.0   0.1+    000921 071  0.0   0.2-
000825 106  0.3+  0.3-    000826 113  0.2+  0.4+    000921 071  0.6-  1.2-
000825 611  0.2+  0.2+    000826 113  0.7+  0.1+    000921 071  1.3-  0.8-
000825 151  0.3-  0.4-    000826 859  0.6-  1.7-    000922 587  0.1+  0.3+
000825 151  0.4-  0.5-    000826 859  0.7-  1.0-    000922 587  0.4+  0.1+
000825 611  0.0   0.4-    000827 859 (0.9-  4.1-)   000926 704  0.1+  0.0
000825 151  0.1-  0.1+    000827 808  0.5-  0.8-    000926 704  0.4+  0.2-
000825 611  0.2+  1.0-    000827 739  0.5-  0.5+    000926 704  0.0   0.1+
000825 611  0.4+  0.0     000827 739  0.4-  0.2-    000926 704  0.3+  0.0
000825 108  1.0+  0.2-    000827 739 (2.1-  1.9-)   000926 360  0.3-  0.2-
000825 108 (0.8+  2.5-)   000827 808  0.1+  0.5-    000926 360  0.3-  0.0
000825 118  0.2+  0.2-    000827 734  1.1-  0.1+    000926 360  0.1-  0.1+
000825 118  0.2+  0.1+    000827 734  1.1-  0.3-    000926 118  0.2-  0.2-
000825 118  0.3+  0.1-    000827 734  1.1-  0.5-    000926 118  0.2-  0.5+
000825 157  0.1-  0.5+    000827 726  1.2-  1.4-    001002 711  0.3+  0.2+
000825 157  0.1+  0.6+    000827 726  0.9-  0.3-    001002 711  0.0   0.4+
000825 157  0.3+  0.4+    000827 726  0.6+  0.3-    001005 118  0.3+  0.7+
000825 157  0.0   0.9+    000827 726  0.9-  1.7-    001005 118  0.8+  0.4+
000825 163  0.3+  0.0     000827 808  0.2+  0.3-    001205 693  0.1+  0.1-
000825 046  0.0   0.1-    000827 808  0.5-  0.4+    001205 693  0.2-  0.2+
000825 163  0.1+  0.1+    000827 670  0.4+  0.2+    001205 693  0.6+  0.0
000825 163  0.3+  0.2-    000827 670  0.0   0.5+    070611 474  0.6+  0.3-
000825 163  0.1+  0.1-    000827 670  0.6+  0.4+    070611 474  0.4-  0.4-
000825 046  0.1-  0.3-    000827 658  0.4-  0.3+    070611 474  0.1-  0.2-
000825 012  1.7+  0.9+    000827 658  1.2-  0.3-    070612 474  0.4+  0.3-
000825 046  0.1+  0.1+    000827 658  0.4-  0.1+    070612 474  0.1+  0.5-
000825 046  0.2-  0.7+    000827 428  0.5+  0.6-    070612 474  0.3+  0.1-
000825 012  0.8-  0.8-    000828 808  0.7+  1.3+    070612 474  0.3+  0.0

Ephemeris:
2000 QT7                 a,e,i = 2.30, 0.50, 12                  q = 1.1572
Date    TT    R. A. (2000) Decl.     Delta      r     Elong.  Phase     V
2007 06 09    21 26.82   -39 19.7    0.636    1.463   123.2    35.5    21.4
2007 06 19    21 54.23   -38 03.0    0.541    1.404   126.1    35.8    21.0
2007 06 29    22 21.85   -35 52.8    0.455    1.349   128.7    36.0    20.5
2007 07 09    22 49.43   -32 24.0    0.380    1.298   131.0    36.2    20.0
2007 07 19    23 16.41   -27 02.3    0.316    1.253   133.1    36.3    19.6
2007 07 29    23 42.24   -19 02.9    0.263    1.216   135.0    36.2    19.1
2007 08 08    00 06.26   -07 50.8    0.225    1.186   136.1    36.3    18.7
2007 08 18    00 27.48   +06 11.2    0.203    1.167   135.8    37.2    18.5
2007 08 28    00 45.02   +20 59.3    0.201    1.158   133.6    39.2    18.5
2007 09 07    00 57.96   +33 48.2    0.213    1.160   131.2    40.8    18.7
2007 09 17    01 05.40   +43 08.5    0.237    1.172   130.1    41.0    18.9
2007 09 27    01 07.68   +48 59.9    0.268    1.195   130.9    39.3    19.2
2007 10 07    01 06.35   +51 56.9    0.304    1.227   133.1    36.5    19.4
2007 10 17    01 04.05   +52 35.6    0.344    1.268   136.2    33.0    19.7
2007 10 27    01 03.74   +51 33.8    0.391    1.315   139.1    29.6    19.9
2007 11 06    01 06.89   +49 27.5    0.446    1.367   141.1    27.1    20.2
2007 11 16    01 13.82   +46 48.0    0.511    1.424   141.3    25.7    20.6
2007 11 26    01 24.15   +44 02.2    0.588    1.484   139.5    25.6    21.0
2007 12 06    01 37.05   +41 27.0    0.678    1.546   135.9    26.3    21.4
2007 12 16    01 51.89   +39 12.0    0.781    1.610   131.2    27.4    21.8

Timothy B. Spahr             (C) Copyright 2007 MPC           M.P.E.C. 2007-L48

Read MPEC 2007-L47 Read MPEC 2007-L49


Our Web policy. Index to the CBAT/MPC/ICQ pages.


Valid HTML 4.01!